UAE670 OMDB-VHHH

Flight info

Callsign UAE670
Flight time N/A
Altitude 41000
Route IVURO M677 LALDO B505 NADSO B524 ALPOR M504 TELEM A791 CEA B465 CTG A599 LINSO/K0907S1250 A599 POU R473 SIERA
Aircraft A359/H-SDE2E3GHIJ3J4J5LM1ORWXY/LB1D1

Departure

Time 2026-05-08 09:14
Airport Dubai International Airport (OMDB)

Arrival

Time N/A
Airport Hong Kong International Airport (VHHH)
Time Latitude Longitude Altitude Speed Heading
2026-05-08 09:14 25.47606 55.60718 13924 ft 367 kts 124°
2026-05-08 09:14 25.46217 55.63107 14459 ft 372 kts 124°
2026-05-08 09:14 25.44815 55.65540 14979 ft 377 kts 123°
2026-05-08 09:15 25.43416 55.68016 15523 ft 382 kts 121°
2026-05-08 09:15 25.42357 55.70732 16039 ft 388 kts 108°
2026-05-08 09:15 25.41678 55.73635 16602 ft 392 kts 104°
2026-05-08 09:15 25.41064 55.76584 17178 ft 395 kts 104°
2026-05-08 09:16 25.40448 55.79567 17721 ft 399 kts 103°
2026-05-08 09:16 25.39813 55.82586 18202 ft 404 kts 104°
2026-05-08 09:16 25.39169 55.85625 18668 ft 408 kts 104°
2026-05-08 09:16 25.38516 55.88692 19155 ft 411 kts 104°
2026-05-08 09:17 25.37854 55.91789 19619 ft 416 kts 105°
2026-05-08 09:17 25.37186 55.94917 20063 ft 420 kts 105°
2026-05-08 09:17 25.36513 55.98073 20533 ft 424 kts 104°
2026-05-08 09:17 25.35827 56.01265 20993 ft 428 kts 105°
2026-05-08 09:18 25.35139 56.04479 21454 ft 432 kts 106°
2026-05-08 09:18 25.34438 56.07734 21913 ft 436 kts 105°
2026-05-08 09:18 25.33732 56.11010 22364 ft 440 kts 105°
2026-05-08 09:18 25.33036 56.14322 22839 ft 445 kts 104°
2026-05-08 09:19 25.32546 56.17680 23285 ft 450 kts 99°
2026-05-08 09:19 25.32194 56.21127 23673 ft 454 kts 97°
2026-05-08 09:19 25.31911 56.24624 24039 ft 458 kts 96°
2026-05-08 09:19 25.31654 56.28146 24463 ft 461 kts 96°
2026-05-08 09:20 25.31395 56.31692 24885 ft 464 kts 96°
2026-05-08 09:20 25.31123 56.35267 25351 ft 467 kts 96°
2026-05-08 09:20 25.30842 56.38807 25792 ft 470 kts 97°
2026-05-08 09:20 25.30580 56.42430 26237 ft 475 kts 95°
2026-05-08 09:21 25.30437 56.46092 26678 ft 479 kts 93°
2026-05-08 09:21 25.30357 56.49786 27132 ft 483 kts 92°
2026-05-08 09:22 25.25895 56.71600 29702 ft 499 kts 115°
2026-05-08 09:23 25.24531 56.75137 30056 ft 503 kts 115°
2026-05-08 09:23 25.23148 56.78698 30414 ft 505 kts 115°
2026-05-08 09:23 25.21763 56.82277 30781 ft 507 kts 115°
2026-05-08 09:23 25.20379 56.85875 31127 ft 509 kts 115°
2026-05-08 09:24 25.18998 56.89484 31456 ft 512 kts 115°
2026-05-08 09:24 25.17614 56.93112 31777 ft 514 kts 115°
2026-05-08 09:24 25.16226 56.96756 32094 ft 516 kts 115°
2026-05-08 09:24 25.15302 56.99180 32298 ft 517 kts 115°
2026-05-08 09:25 25.13907 57.02842 32641 ft 519 kts 115°
2026-05-08 09:25 25.12508 57.06509 33055 ft 517 kts 115°
2026-05-08 09:25 25.10661 57.11347 33679 ft 515 kts 115°
2026-05-08 09:25 25.09723 57.13803 33921 ft 514 kts 115°
2026-05-08 09:26 25.08332 57.17437 34245 ft 514 kts 115°
2026-05-08 09:26 25.06957 57.21025 34591 ft 513 kts 115°
2026-05-08 09:26 25.05570 57.24645 34933 ft 512 kts 115°
2026-05-08 09:26 25.04178 57.28270 35263 ft 511 kts 115°
2026-05-08 09:27 25.02794 57.31874 35592 ft 511 kts 115°
2026-05-08 09:27 25.01409 57.35476 35905 ft 510 kts 115°
2026-05-08 09:27 25.00019 57.39088 36205 ft 510 kts 115°
2026-05-08 09:27 24.98632 57.42688 36503 ft 510 kts 115°
2026-05-08 09:28 24.97250 57.46273 36868 ft 507 kts 115°
2026-05-08 09:28 24.95872 57.49846 37196 ft 507 kts 115°
2026-05-08 09:28 24.94488 57.53425 37492 ft 506 kts 116°
2026-05-08 09:28 24.93105 57.56992 37783 ft 505 kts 116°
2026-05-08 09:29 24.91723 57.60555 38070 ft 505 kts 116°
2026-05-08 09:29 24.90345 57.64108 38346 ft 504 kts 116°
2026-05-08 09:29 24.88982 57.67621 38571 ft 505 kts 116°
2026-05-08 09:29 24.87582 57.71229 38717 ft 506 kts 116°
2026-05-08 09:30 24.86216 57.74749 38914 ft 505 kts 116°
2026-05-08 09:30 24.84836 57.78304 39116 ft 505 kts 116°
2026-05-08 09:30 24.83555 57.81919 39294 ft 507 kts 110°
2026-05-08 09:30 24.82616 57.85670 39509 ft 507 kts 106°
2026-05-08 09:31 24.81789 57.89439 39762 ft 506 kts 105°
2026-05-08 09:31 24.81007 57.93215 39920 ft 507 kts 105°
2026-05-08 09:31 24.80244 57.97005 40033 ft 508 kts 104°
2026-05-08 09:31 24.79488 58.00811 40186 ft 508 kts 104°
2026-05-08 09:32 24.78732 58.04606 40348 ft 508 kts 104°
2026-05-08 09:32 24.77968 58.08407 40526 ft 508 kts 105°
2026-05-08 09:32 24.77208 58.12162 40661 ft 508 kts 105°
2026-05-08 09:33 24.75659 58.19749 40765 ft 508 kts 105°
2026-05-08 09:33 24.74100 58.27339 40761 ft 508 kts 105°
2026-05-08 09:34 24.72535 58.34935 40762 ft 509 kts 105°
2026-05-08 09:34 24.70968 58.42530 40753 ft 509 kts 105°
2026-05-08 09:35 24.69398 58.50118 40753 ft 509 kts 105°
2026-05-08 09:35 24.67832 58.57666 40756 ft 509 kts 105°
2026-05-08 09:36 24.66252 58.65262 40756 ft 509 kts 105°
2026-05-08 09:36 24.64666 58.72869 40751 ft 509 kts 105°
2026-05-08 09:37 24.63078 58.80463 40749 ft 509 kts 105°
2026-05-08 09:37 24.61486 58.88052 40747 ft 509 kts 105°
2026-05-08 09:38 24.59891 58.95638 40746 ft 509 kts 105°
2026-05-08 09:38 24.58293 59.03220 40749 ft 509 kts 105°
2026-05-08 09:39 24.56692 59.10796 40751 ft 509 kts 105°
2026-05-08 09:39 24.55089 59.18361 40735 ft 508 kts 105°
2026-05-08 09:40 24.53488 59.25917 40745 ft 508 kts 105°
2026-05-08 09:40 24.51884 59.33442 40745 ft 508 kts 105°
2026-05-08 09:41 24.50266 59.40995 40745 ft 508 kts 105°
2026-05-08 09:41 24.48647 59.48547 40737 ft 508 kts 105°
2026-05-08 09:42 24.47022 59.56110 40737 ft 508 kts 105°
2026-05-08 09:42 24.45407 59.63611 40726 ft 508 kts 105°
2026-05-08 09:43 24.43775 59.71169 40739 ft 508 kts 105°
2026-05-08 09:43 24.42143 59.78709 40726 ft 507 kts 105°
2026-05-08 09:44 24.40510 59.86238 40726 ft 507 kts 105°
2026-05-08 09:44 24.38870 59.93772 40731 ft 507 kts 105°
2026-05-08 09:45 24.37229 60.01298 40736 ft 507 kts 105°
2026-05-08 09:45 24.35591 60.08786 40729 ft 507 kts 105°
2026-05-08 09:46 24.33946 60.16313 40731 ft 507 kts 105°
2026-05-08 09:46 24.32293 60.23835 40729 ft 508 kts 105°
2026-05-08 09:47 24.30634 60.31366 40733 ft 508 kts 105°
2026-05-08 09:47 24.28985 60.38838 40726 ft 507 kts 105°
2026-05-08 09:48 24.27322 60.46353 40736 ft 507 kts 105°
2026-05-08 09:48 24.25659 60.53855 40735 ft 507 kts 105°
2026-05-08 09:49 24.23991 60.61356 40735 ft 507 kts 105°
2026-05-08 09:49 24.22320 60.68855 40733 ft 507 kts 105°
2026-05-08 09:50 24.20646 60.76355 40737 ft 507 kts 104°
2026-05-08 09:50 24.18973 60.83857 40739 ft 507 kts 105°
2026-05-08 09:51 24.17293 60.91355 40734 ft 507 kts 105°
2026-05-08 09:51 24.15609 60.98857 40728 ft 507 kts 105°
2026-05-08 09:52 24.13925 61.06340 40736 ft 506 kts 105°
2026-05-08 09:52 24.12233 61.13842 40734 ft 506 kts 105°
2026-05-08 09:53 24.10551 61.21284 40737 ft 506 kts 105°
2026-05-08 09:53 24.08855 61.28770 40738 ft 506 kts 105°
2026-05-08 09:54 24.07680 61.36372 40734 ft 507 kts 96°
2026-05-08 09:54 24.07142 61.44082 40739 ft 508 kts 94°
2026-05-08 09:55 24.06702 61.51807 40734 ft 508 kts 94°
2026-05-08 09:55 24.06261 61.59538 40740 ft 508 kts 94°
2026-05-08 09:56 24.05805 61.67194 40737 ft 508 kts 94°
2026-05-08 09:56 24.05335 61.74920 40739 ft 508 kts 94°
2026-05-08 09:57 24.04622 61.86485 40742 ft 508 kts 94°
2026-05-08 09:57 24.04142 61.94193 40742 ft 508 kts 94°
2026-05-08 09:58 24.03658 62.01910 40732 ft 508 kts 94°
2026-05-08 09:58 24.03171 62.09616 40735 ft 508 kts 94°
2026-05-08 09:59 24.02680 62.17325 40745 ft 508 kts 94°
2026-05-08 09:59 24.02185 62.25029 40748 ft 508 kts 94°
2026-05-08 10:00 24.01690 62.32685 40745 ft 508 kts 94°
2026-05-08 10:00 24.01187 62.40388 40749 ft 508 kts 94°
2026-05-08 10:01 24.00681 62.48097 40747 ft 508 kts 94°
2026-05-08 10:01 24.00170 62.55805 40748 ft 508 kts 94°
2026-05-08 10:02 23.99655 62.63518 40740 ft 508 kts 94°
2026-05-08 10:02 23.99137 62.71235 40747 ft 508 kts 94°
2026-05-08 10:03 23.98614 62.78948 40742 ft 508 kts 94°
2026-05-08 10:03 23.98088 62.86662 40737 ft 508 kts 94°
2026-05-08 10:04 23.97560 62.94321 40745 ft 508 kts 94°
2026-05-08 10:04 23.97018 63.02043 40753 ft 508 kts 95°
2026-05-08 10:05 23.96477 63.09744 40749 ft 508 kts 95°
2026-05-08 10:05 23.95933 63.17461 40753 ft 508 kts 94°
2026-05-08 10:06 23.95390 63.25138 40746 ft 509 kts 95°
2026-05-08 10:06 23.94840 63.32862 40754 ft 509 kts 95°
2026-05-08 10:07 23.94286 63.40583 40749 ft 509 kts 95°
2026-05-08 10:07 23.93728 63.48303 40748 ft 510 kts 95°
2026-05-08 10:08 23.93168 63.55992 40752 ft 510 kts 95°
2026-05-08 10:08 23.92601 63.63723 40759 ft 510 kts 95°
2026-05-08 10:09 23.92029 63.71471 40755 ft 510 kts 95°
2026-05-08 10:09 23.91455 63.79199 40765 ft 511 kts 95°
2026-05-08 10:10 23.90876 63.86943 40751 ft 511 kts 95°
2026-05-08 10:10 23.90293 63.94683 40756 ft 511 kts 95°
2026-05-08 10:11 23.89706 64.02421 40756 ft 510 kts 95°
2026-05-08 10:11 23.89119 64.10107 40756 ft 511 kts 95°
2026-05-08 10:12 23.88524 64.17849 40752 ft 511 kts 95°
2026-05-08 10:12 23.87926 64.25590 40758 ft 511 kts 95°
2026-05-08 10:13 23.87421 64.32075 40757 ft 511 kts 95°
2026-05-08 10:13 23.86815 64.39820 40758 ft 512 kts 95°
2026-05-08 10:14 23.86209 64.47516 40758 ft 512 kts 95°
2026-05-08 10:14 23.85601 64.55269 40761 ft 512 kts 95°
2026-05-08 10:15 23.84988 64.63015 40763 ft 512 kts 95°